This is the latest recevied weather packets stored in our database for station/object KC9DRE. If no packets are shown the sender has not sent any weather packets the latest 10 day(s).
| Time | Temp. | Humidity | Pressure | Rain* | Wind** | Luminosity | Snow |
|---|---|---|---|---|---|---|---|
| 1778327894 | 13.33° C | 91% | 1009.2 hPa | 0 mm | - | 46 W/m² | - |
| 1778327590 | 13.33° C | 91% | 1009.2 hPa | 0 mm | - | 39 W/m² | - |
| 1778327288 | 13.33° C | 91% | 1008.8 hPa | 0 mm | - | 48 W/m² | - |
| 1778326987 | 13.33° C | 92% | 1008.8 hPa | 0 mm | - | 47 W/m² | - |
| 1778326686 | 13.33° C | 92% | 1008.7 hPa | 0 mm | - | 33 W/m² | - |
| 1778326382 | 12.78° C | 92% | 1008.7 hPa | 0 mm | - | 36 W/m² | - |
| 1778326079 | 12.78° C | 92% | 1008.7 hPa | 0 mm | - | 37 W/m² | - |
| 1778325776 | 12.78° C | 92% | 1008.7 hPa | 0 mm | - | 27 W/m² | - |
| 1778325473 | 12.78° C | 92% | 1008.8 hPa | 0 mm | - | 15 W/m² | - |
| 1778325170 | 12.78° C | 92% | 1008.4 hPa | 0 mm | - | 9 W/m² | - |
| 1778324867 | 12.78° C | 92% | 1008.4 hPa | 0 mm | - | 4 W/m² | - |
| 1778324563 | 12.78° C | 93% | 1008.2 hPa | 0 mm | - | 3 W/m² | - |
| 1778324262 | 12.78° C | 93% | 1008.2 hPa | 0 mm | - | 2 W/m² | - |
| 1778323959 | 12.78° C | 93% | 1008.3 hPa | 0 mm | - | 1 W/m² | - |
| 1778323656 | 12.78° C | 93% | 1008.3 hPa | 0 mm | - | 1 W/m² | - |
| 1778323353 | 12.78° C | 93% | 1008.5 hPa | 0 mm | - | 1 W/m² | - |
| 1778323051 | 12.78° C | 92% | 1008.5 hPa | 0 mm | - | 0 W/m² | - |
| 1778322748 | 12.78° C | 92% | 1008.6 hPa | 0 mm | - | 0 W/m² | - |
| 1778322446 | 12.78° C | 92% | 1008.4 hPa | 0 mm | - | 0 W/m² | - |
| 1778322143 | 12.78° C | 92% | 1008.4 hPa | 0 mm | - | 0 W/m² | - |
| 1778321839 | 12.78° C | 92% | 1008.3 hPa | 0 mm | - | 0 W/m² | - |
| 1778321535 | 12.78° C | 92% | 1008.6 hPa | 0 mm | - | 0 W/m² | - |
| 1778321233 | 12.78° C | 92% | 1008.7 hPa | 0 mm | - | 0 W/m² | - |
| 1778320930 | 12.78° C | 93% | 1008.5 hPa | 0 mm | - | 0 W/m² | - |
| 1778320627 | 12.78° C | 93% | 1008.7 hPa | 0 mm | - | 0 W/m² | - |
* Rain latest hour (hover to see other rain measurements)
** Current wind speed in m/s (hover to see current wind gust speed)